Regional Weather Roundup
Issued by NWS

Home | Current Version | Previous Version | Graphics & Text | Print | Product List | Glossary On
Versions: 1 2 3 4 5 6 7 8 9 10 11 12 13 14 15 16 17 18 19 20 21 22 23 24 25 26 27 28 29 30 31 32 33 34 35 36 37 38 39 40 41 42 43 44 45 46 47 48 49 50
000
ASUS43 KLOT 160710
RWRIL

ILLINOIS REGIONAL WEATHER ROUNDUP
NATIONAL WEATHER SERVICE CHICAGO/ROMEOVILLE IL
200 AM CDT TUE SEP 16 2014

NOTE: "FAIR" INDICATES FEW OR NO CLOUDS BELOW 12,000 FEET WITH NO
SIGNIFICANT WEATHER AND/OR OBSTRUCTIONS TO VISIBILITY.

* THESE STATIONS ARE NOT UNDER NWS QUALITY CONTROL. THEY ALSO MAY NOT
  REPORT WEATHER SUCH AS PRECIPITATION OR FOG.

ILZ001-002-007-009-015-016-024-160800-
NORTHWEST ILLINOIS

CITY           SKY/WX    TMP DP  RH WIND       PRES   REMARKS
MOLINE         CLEAR     46  43  89 CALM      30.23S
STERLING*      CLEAR     46  43  87 N3        30.21R
SAVANNA*       FOG       44  42  95 CALM      30.22R VSB 1
$$

ILZ003-004-008-010-011-017-018-160800-
NORTH CENTRAL ILLINOIS

CITY           SKY/WX    TMP DP  RH WIND       PRES   REMARKS
ROCKFORD       CLEAR     44  42  93 CALM      30.22S
FREEPORT*      CLEAR     40  38  95 W3        30.23S
ROCHELLE*      FOG       40  40  97 CALM      30.21S VSB 1/2
DE KALB*       CLEAR     42  41  97 NW7       30.21S FOG
PERU*          CLEAR     45  44  96 NW6       30.21S
$$

ILZ005-006-012>014-019>023-160800-
NORTHEAST ILLINOIS

CITY           SKY/WX    TMP DP  RH WIND       PRES   REMARKS
CHICAGO-OHARE  CLEAR     50  47  89 NW6       30.18S
CHICAGO-MIDWAY PTCLDY    53  49  86 N8        30.17S
AURORA         CLEAR     43  41  93 NW3       30.20R FOG
LANSING*       CLEAR     50  48  92 W3        30.18R
JOLIET*        CLEAR     49  47  92 CALM      30.20S
WAUKEGAN       CLEAR     46  44  93 W5        30.18R
DUPAGE AIRPORT CLEAR     45  43  93 W5        30.19S
KANKAKEE*      CLOUDY    52  50  92 N6        30.18S
WHEELING       CLEAR     49  45  86 CALM      30.20R
MORRIS*        CLEAR     47  47 100 CALM      30.20R
ROMEOVILLE*    CLEAR     47  47  99 CALM      30.19S
NORTHERLY ISL    N/A     54  47  77 NW7         N/A
$$

LMZ740>746-160800-
SOUTHERN LAKE MICHIGAN

STATION/POSITION SKY/WX   TEMP    WIND        PRES    VSBY  WAVE
                          AIR SEA DIR/SP/G                  HT/PER
                          (F)     (DEG/KT/KT) (MB)    (MI)  (FT/S)
SOUTHERN BUOY              58 64  310/ 10/ 12 1021.7R         1/ 3
WAUKEGAN HARBOR            50     320/  7/ 11   N/A
HARRISON CRIB              54     330/ 13/ 15   N/A
BURNHAM HARBOR             54     330/  7/ 10   N/A
CALUMET HARBOR             53                   N/A
MICHIGAN CITY              58     340/ 13/ 16   N/A
MICHIGAN CITY 6N           59 64  360/ 12/ 16   N/A           3/ 5
ST. JOSEPH                 57 66   70/  8/ 12   N/A           3/ 5
$$

ILZ025>027-034>036-040-047-049-050-058-095>099-160800-
WEST-CENTRAL ILLINOIS

CITY           SKY/WX    TMP DP  RH WIND       PRES   REMARKS
QUINCY         CLEAR     50  48  93 NE5       30.22S
GALESBURG*     CLEAR     44  43  97 NW3       30.23R
MACOMB*        CLEAR     47  47  98 N5        30.24S
JACKSONVILLE*  CLOUDY    56  55  93 N6        30.21S
PITTSFIELD*    CLOUDY    56  52  87 N5        30.23R
$$

ILZ028>032-037-038-041>044-048-051>054-059>061-160800-
CENTRAL ILLINOIS

CITY           SKY/WX    TMP DP  RH WIND       PRES   REMARKS
PONTIAC        CLOUDY    52  52 100 CALM      30.20R FOG
DECATUR        CLOUDY    56  52  86 N9        30.19R
PEORIA         PTCLDY    53  49  86 N3        30.22R
LACON*         CLEAR     46  45  97 CALM      30.21S FOG
LINCOLN*       CLOUDY    55  53  92 N6        30.18S
SPRINGFIELD    CLOUDY    56  53  90 N8        30.21R
TAYLORVILLE    CLOUDY    54  52  94 N8        30.19R
$$

ILZ033-039-045-046-055>057-062-063-160800-
EAST-CENTRAL ILLINOIS

CITY           SKY/WX    TMP DP  RH WIND       PRES   REMARKS
CHAMPAIGN      CLOUDY    55  53  93 N9        30.18R
DANVILLE*      CLOUDY    53  52  97 N8        30.14S FOG
RANTOUL*       CLOUDY    56  53  90 N5        30.18S FOG
MATTOON        CLOUDY    55  53  93 N14       30.15S
PARIS*         CLOUDY    56  56  99 CALM      30.15S
$$

ILZ079-100>102-160800-
SOUTHWEST ILLINOIS

CITY           SKY/WX    TMP DP  RH WIND       PRES   REMARKS
ALTON          CLOUDY    57  55  92 CALM      30.19S
BELLEVILLE     MOCLDY    58  57  98 W5        30.17S
CAHOKIA*       CLOUDY    60  56  86 N6        30.19R
SPARTA*        CLOUDY    59  57  93 N8        30.18R
$$

ILZ064>066-069>071-074>076-080>082-084>086-088>090-092>094-160800-
SOUTH-CENTRAL ILLINOIS

CITY           SKY/WX    TMP DP  RH WIND       PRES   REMARKS
CARBONDALE     CLOUDY    63  59  87 N6        30.15S
CAIRO*         CLOUDY    68  64  86 N5        30.12R
EFFINGHAM*     CLOUDY    58  53  83 N7        30.16R
MARION         CLOUDY    64  61  88 N5        30.15S
MT. VERNON     CLOUDY    59  54  82 N3        30.16S
CENTRALIA*     CLOUDY    58  55  88 N7        30.16S
SALEM*         CLOUDY    60  58  94 N5        30.17R
METROPOLIS*    CLOUDY    67  65  91 N5        30.11R
$$

ILZ067-068-072-073-078-083-087-091-160800-
SOUTHEAST ILLINOIS

CITY           SKY/WX    TMP DP  RH WIND       PRES   REMARKS
LAWRENCEVILLE  CLOUDY    60  58  92 N9        30.13R
FLORA*         CLEAR     58  56  92 N6        30.16R
FAIRFIELD*     CLOUDY   N/A N/A N/A N8        30.14S
HARRISBURG*    CLOUDY    62  62  97 N6        30.14S
ROBINSON*      MOCLDY    60  58  95 N6        30.14R
CARMI*         CLOUDY    62  61  96 NW6       30.12R
$$

ABBREVIATIONS USED IN REMARKS
   TC - TEMPERATURE IN CELSIUS
  WCI - WIND CHILL INDEX
   HX - HEAT INDEX
  VSB - VISIBILITY
$$



USA.gov is the U.S. government's official web portal to all federal, state and local government web resources and services.